Volver al catálogo

CZ-6A DEB

ActivoPO
NORAD 61274·DEBRIS·🇨🇳 China

Lanzado Aug 6, 2024 desde Taiyuan Satellite Launch Center

Loading…

Próximos Pases (próximas 24 horas)

TLE

ActualizadoSource: Space-Track

Época: Sep 14, 2026, 09:54 UTC

1 61274U 24140SK  26257.41304635  .00002245  00000-0  11758-2 0  9996
2 61274  88.8466 252.8987 0101359 310.0039  49.2281 14.11394575105426

Sigue CZ-6A DEB en tiempo real con AllMySat

Download on the App Store